When you browse on this site, cookies collect data to enhance your experience and personalize the content and advertising you see.
Visit our Privacy Policy to learn more. By continuing to use the site, you agree to this use of cookies and data.

Hourly Weather Penco

Today, 15 August, Saturday

Time Temperature Precipitation Wind Pressure Humidity
00:00 +4°C° 0 mm 2 mps 761 mmHg 90%
01:00 +3°C° 0 mm 2 mps 761 mmHg 92%
02:00 +4°C° 0 mm 2 mps 761 mmHg 92%
03:00 +4°C° 0 mm 2 mps 761 mmHg 91%
04:00 +4°C° 0 mm 2 mps 761 mmHg 91%
05:00 +4°C° 0 mm 2 mps 761 mmHg 92%
06:00 +3°C° 0 mm 3 mps 761 mmHg 93%
07:00 +3°C° 0 mm 3 mps 762 mmHg 95%
08:00 +5°C° 0 mm 3 mps 762 mmHg 83%
09:00 +7°C° 0 mm 3 mps 762 mmHg 72%
10:00 +9°C° 0 mm 3 mps 762 mmHg 61%
11:00 +10°C° 0 mm 3 mps 762 mmHg 58%
12:00 +10°C° 0 mm 3 mps 762 mmHg 55%
13:00 +11°C° 0 mm 3 mps 761 mmHg 52%
14:00 +11°C° 0 mm 4 mps 761 mmHg 54%
15:00 +10°C° 0 mm 4 mps 761 mmHg 57%
16:00 +10°C° 0 mm 4 mps 761 mmHg 59%
17:00 +7°C° 0 mm 4 mps 761 mmHg 67%
18:00 +6°C° 0 mm 4 mps 762 mmHg 75%
19:00 +4°C° 0 mm 4 mps 762 mmHg 83%
20:00 +4°C° 0 mm 4 mps 762 mmHg 84%
21:00 +3°C° 0 mm 4 mps 762 mmHg 85%
22:00 +3°C° 0 mm 4 mps 762 mmHg 86%
23:00 +3°C° 0 mm 4 mps 761 mmHg 86%

Tomorrow, 16 August, Sunday

Time Temperature Precipitation Wind Pressure Humidity
00:00 +1°C° 0 mm 4 mps 761 mmHg 86%
01:00 +1°C° 0 mm 4 mps 761 mmHg 87%
02:00 +1°C° 0 mm 4 mps 761 mmHg 87%
03:00 +1°C° 0 mm 3 mps 760 mmHg 88%
04:00 +1°C° 0 mm 3 mps 760 mmHg 88%
05:00 +1°C° 0 mm 3 mps 760 mmHg 88%
06:00 +1°C° 0 mm 3 mps 760 mmHg 87%
07:00 +1°C° 0 mm 3 mps 760 mmHg 87%
08:00 +3°C° 0 mm 3 mps 760 mmHg 77%
09:00 +7°C° 0 mm 3 mps 760 mmHg 67%
10:00 +9°C° 0 mm 3 mps 760 mmHg 57%
11:00 +11°C° 0 mm 3 mps 760 mmHg 55%
12:00 +12°C° 0 mm 3 mps 760 mmHg 52%
13:00 +13°C° 0 mm 3 mps 759 mmHg 50%
14:00 +12°C° 0 mm 4 mps 759 mmHg 55%
15:00 +12°C° 0 mm 4 mps 759 mmHg 59%
16:00 +12°C° 0 mm 4 mps 758 mmHg 64%
17:00 +10°C° 0 mm 4 mps 758 mmHg 75%
18:00 +8°C° 0 mm 3 mps 759 mmHg 85%
19:00 +5°C° 0 mm 3 mps 759 mmHg 95%
20:00 +4°C° 0 mm 3 mps 759 mmHg 96%
21:00 +5°C° 0 mm 2 mps 759 mmHg 96%
22:00 +5°C° 0 mm 2 mps 759 mmHg 96%
23:00 +5°C° 0 mm 2 mps 759 mmHg 96%

Day after tomorrow, 17 August, Monday

Time Temperature Precipitation Wind Pressure Humidity
00:00 +4°C° 0 mm 2 mps 759 mmHg 96%
01:00 +4°C° 0 mm 2 mps 759 mmHg 96%
02:00 +4°C° 0 mm 2 mps 759 mmHg 96%
03:00 +4°C° 0 mm 2 mps 758 mmHg 96%
04:00 +3°C° 0 mm 2 mps 758 mmHg 96%
05:00 +3°C° 0 mm 2 mps 758 mmHg 96%
06:00 +4°C° 0 mm 1 mps 758 mmHg 96%
07:00 +4°C° 0 mm 1 mps 758 mmHg 95%
08:00 +6°C° 0 mm 2 mps 758 mmHg 83%
09:00 +9°C° 0 mm 2 mps 758 mmHg 72%
10:00 +12°C° 0 mm 2 mps 758 mmHg 60%
11:00 +13°C° 0 mm 2 mps 758 mmHg 57%
12:00 +14°C° 0 mm 3 mps 757 mmHg 53%
13:00 +16°C° 0 mm 3 mps 757 mmHg 50%
14:00 +14°C° 0 mm 4 mps 757 mmHg 56%
15:00 +13°C° 0 mm 4 mps 756 mmHg 63%
16:00 +12°C° 0 mm 5 mps 756 mmHg 69%
17:00 +9°C° 0 mm 5 mps 756 mmHg 76%
18:00 +7°C° 0 mm 5 mps 757 mmHg 83%
19:00 +5°C° 0 mm 4 mps 757 mmHg 90%
20:00 +5°C° 0 mm 4 mps 757 mmHg 89%
21:00 +5°C° 0 mm 3 mps 757 mmHg 89%
22:00 +5°C° 0 mm 3 mps 757 mmHg 88%
23:00 +6°C° 0 mm 2 mps 757 mmHg 87%

18 August, Tuesday

Time Temperature Precipitation Wind Pressure Humidity
00:00 +6°C° 0 mm 2 mps 757 mmHg 87%
01:00 +7°C° 0 mm 1 mps 757 mmHg 86%
02:00 +7°C° 0 mm 1 mps 757 mmHg 89%
03:00 +6°C° 0 mm 1 mps 757 mmHg 92%
04:00 +5°C° 0 mm 1 mps 757 mmHg 96%
05:00 +6°C° 0 mm 1 mps 757 mmHg 95%
06:00 +6°C° 0 mm 1 mps 757 mmHg 95%
07:00 +7°C° 0 mm 1 mps 758 mmHg 94%
08:00 +7°C° 0.3 mm 2 mps 758 mmHg 90%
09:00 +8°C° 0.3 mm 2 mps 758 mmHg 87%
10:00 +10°C° 0.3 mm 3 mps 759 mmHg 83%
11:00 +10°C° 0 mm 3 mps 759 mmHg 76%
12:00 +11°C° 0 mm 4 mps 759 mmHg 68%
13:00 +12°C° 0 mm 4 mps 759 mmHg 61%
14:00 +11°C° 0 mm 4 mps 760 mmHg 63%
15:00 +11°C° 0 mm 4 mps 760 mmHg 65%
16:00 +10°C° 0 mm 4 mps 760 mmHg 67%
17:00 +7°C° 0 mm 4 mps 760 mmHg 74%
18:00 +6°C° 0 mm 5 mps 761 mmHg 81%
19:00 +3°C° 0 mm 5 mps 761 mmHg 88%
20:00 +4°C° 0 mm 4 mps 762 mmHg 84%
21:00 +4°C° 0 mm 4 mps 762 mmHg 79%
22:00 +5°C° 0 mm 3 mps 762 mmHg 75%
23:00 +3°C° 0 mm 3 mps 763 mmHg 80%

19 August, Wednesday

Time Temperature Precipitation Wind Pressure Humidity
00:00 +2°C° 0 mm 3 mps 763 mmHg 84%
01:00 +1°C° 0 mm 3 mps 763 mmHg 89%
02:00 +1°C° 0 mm 3 mps 763 mmHg 89%
03:00 0°C° 0 mm 3 mps 763 mmHg 90%
04:00 0°C° 0 mm 3 mps 763 mmHg 90%
05:00 0°C° 0 mm 3 mps 763 mmHg 89%
06:00 0°C° 0 mm 3 mps 763 mmHg 89%
07:00 0°C° 0 mm 3 mps 763 mmHg 89%
08:00 +2°C° 0 mm 3 mps 763 mmHg 76%
09:00 +5°C° 0 mm 4 mps 763 mmHg 64%
10:00 +7°C° 0 mm 4 mps 763 mmHg 52%
11:00 +8°C° 0 mm 4 mps 763 mmHg 48%
12:00 +10°C° 0 mm 4 mps 762 mmHg 44%
13:00 +12°C° 0 mm 4 mps 762 mmHg 40%
14:00 +11°C° 0 mm 4 mps 762 mmHg 44%
15:00 +11°C° 0 mm 4 mps 762 mmHg 47%
16:00 +11°C° 0 mm 4 mps 762 mmHg 51%
17:00 +8°C° 0 mm 4 mps 762 mmHg 57%
18:00 +6°C° 0 mm 4 mps 762 mmHg 62%
19:00 +5°C° 0 mm 4 mps 763 mmHg 68%
20:00 +4°C° 0 mm 4 mps 763 mmHg 71%
21:00 +3°C° 0 mm 4 mps 763 mmHg 73%
22:00 +3°C° 0 mm 4 mps 763 mmHg 76%
23:00 +1°C° 0 mm 4 mps 763 mmHg 77%

20 August, Thursday

Time Temperature Precipitation Wind Pressure Humidity
00:00 +1°C° 0 mm 3 mps 763 mmHg 78%
01:00 0°C° 0 mm 3 mps 762 mmHg 79%
02:00 0°C° 0 mm 3 mps 762 mmHg 79%
03:00 -1°C° 0 mm 3 mps 762 mmHg 79%
04:00 -1°C° 0 mm 3 mps 761 mmHg 79%
05:00 -1°C° 0 mm 3 mps 761 mmHg 78%
06:00 -1°C° 0 mm 3 mps 762 mmHg 76%
07:00 -1°C° 0 mm 3 mps 762 mmHg 74%
08:00 +2°C° 0 mm 3 mps 761 mmHg 63%
09:00 +5°C° 0 mm 3 mps 761 mmHg 51%
10:00 +9°C° 0 mm 2 mps 761 mmHg 40%
11:00 +12°C° 0 mm 2 mps 761 mmHg 37%
12:00 +14°C° 0 mm 2 mps 760 mmHg 34%
13:00 +16°C° 0 mm 2 mps 760 mmHg 31%
14:00 +15°C° 0 mm 2 mps 760 mmHg 36%
15:00 +15°C° 0 mm 2 mps 760 mmHg 41%
16:00 +14°C° 0 mm 2 mps 760 mmHg 46%
17:00 +12°C° 0 mm 2 mps 760 mmHg 53%
18:00 +8°C° 0 mm 2 mps 760 mmHg 61%
19:00 +5°C° 0 mm 2 mps 760 mmHg 69%
20:00 +5°C° 0 mm 2 mps 760 mmHg 71%
21:00 +4°C° 0 mm 2 mps 760 mmHg 74%
22:00 +4°C° 0 mm 2 mps 760 mmHg 76%
23:00 +4°C° 0 mm 2 mps 760 mmHg 78%
Show more